Year,Month,Day,Hour,Minute,Value (Times are PST for temperature in C)
2020,12,01,08,12,0.90
2020,12,01,08,13,0.90
2020,12,01,08,14,0.90
2020,12,01,08,15,0.90
2020,12,01,08,16,0.80
2020,12,01,08,17,0.80
2020,12,01,08,18,0.70
2020,12,01,08,19,0.70
2020,12,01,08,20,0.70
2020,12,01,08,21,0.70
2020,12,01,08,22,0.70
2020,12,01,08,23,0.70
2020,12,01,08,24,0.60
2020,12,01,08,25,0.60
2020,12,01,08,26,0.50
2020,12,01,08,27,0.50
2020,12,01,08,28,0.50
2020,12,01,08,29,0.60
2020,12,01,08,30,0.60
2020,12,01,08,31,0.60
2020,12,01,08,32,0.70
2020,12,01,08,33,0.80
2020,12,01,08,34,0.90
2020,12,01,08,35,0.90
2020,12,01,08,36,1.00
2020,12,01,08,37,1.00
2020,12,01,08,38,1.10
2020,12,01,08,39,1.10
2020,12,01,08,40,1.10
2020,12,01,08,41,1.20
2020,12,01,08,42,1.20
2020,12,01,08,43,1.20
2020,12,01,08,44,1.30
2020,12,01,08,45,1.30
2020,12,01,08,46,1.30
2020,12,01,08,47,1.30
2020,12,01,08,48,1.30
2020,12,01,08,49,1.30
2020,12,01,08,50,1.30
2020,12,01,08,51,1.30
2020,12,01,08,52,1.30
2020,12,01,08,53,1.30
2020,12,01,08,54,1.30
2020,12,01,08,55,1.30
2020,12,01,08,56,1.30
2020,12,01,08,57,1.30
2020,12,01,08,58,1.30
2020,12,01,08,59,1.30
2020,12,01,09,00,1.30
2020,12,01,09,01,1.30
2020,12,01,09,02,1.30
2020,12,01,09,03,1.30
2020,12,01,09,04,1.30
2020,12,01,09,05,1.30
2020,12,01,09,06,1.30
2020,12,01,09,07,1.40
2020,12,01,09,08,1.40
2020,12,01,09,09,1.50
2020,12,01,09,10,1.60
2020,12,01,09,11,1.60
2020,12,01,09,12,1.70
2020,12,01,09,13,1.70
2020,12,01,09,14,1.80
2020,12,01,09,15,1.80
2020,12,01,09,16,1.80
2020,12,01,09,17,1.90
2020,12,01,09,18,2.00
2020,12,01,09,19,2.00
2020,12,01,09,20,2.10
2020,12,01,09,21,2.20
2020,12,01,09,22,2.20
2020,12,01,09,23,2.30
2020,12,01,09,24,2.30
2020,12,01,09,25,2.30
2020,12,01,09,26,2.40
2020,12,01,09,27,2.40
2020,12,01,09,28,2.40
2020,12,01,09,29,2.50
2020,12,01,09,30,2.50
2020,12,01,09,31,2.50
2020,12,01,09,32,2.60
2020,12,01,09,33,2.60
2020,12,01,09,34,2.60
2020,12,01,09,35,2.60
2020,12,01,09,36,2.60
2020,12,01,09,37,2.60
2020,12,01,09,38,2.60
2020,12,01,09,39,2.60
2020,12,01,09,40,2.60
2020,12,01,09,41,2.60
2020,12,01,09,42,2.60
2020,12,01,09,43,2.70
2020,12,01,09,44,2.70
2020,12,01,09,45,2.80
2020,12,01,09,46,2.80
2020,12,01,09,47,2.90
2020,12,01,09,48,2.90
2020,12,01,09,49,3.00
2020,12,01,09,50,3.10
2020,12,01,09,51,3.20
2020,12,01,09,52,3.20
2020,12,01,09,53,3.30
2020,12,01,09,54,3.30
2020,12,01,09,55,3.30
2020,12,01,09,56,3.30
2020,12,01,09,57,3.30
2020,12,01,09,58,3.30
2020,12,01,09,59,3.30
2020,12,01,10,00,3.30
2020,12,01,10,01,3.30
2020,12,01,10,02,3.30
2020,12,01,10,03,3.80
2020,12,01,10,04,3.90
2020,12,01,10,05,3.90
2020,12,01,10,06,3.90
2020,12,01,10,07,3.90
2020,12,01,10,08,4.00
2020,12,01,10,09,4.10
2020,12,01,10,10,4.20
2020,12,01,10,11,4.20
2020,12,01,10,12,4.30
2020,12,01,10,13,4.30
2020,12,01,10,14,4.50
2020,12,01,10,15,4.50
2020,12,01,10,16,4.60
2020,12,01,10,17,4.60
2020,12,01,10,18,4.80
2020,12,01,10,19,4.80
2020,12,01,10,20,4.90
2020,12,01,10,21,4.90
2020,12,01,10,22,5.00
2020,12,01,10,23,5.10
2020,12,01,10,24,5.10
2020,12,01,10,25,5.10
2020,12,01,10,26,5.20
2020,12,01,10,27,5.20
2020,12,01,10,28,5.30
2020,12,01,10,29,5.30
2020,12,01,10,30,5.30
2020,12,01,10,31,5.40
2020,12,01,10,32,5.40
2020,12,01,10,33,5.50
2020,12,01,10,34,5.50
2020,12,01,10,35,5.60
2020,12,01,10,36,5.60
2020,12,01,10,37,5.80
2020,12,01,10,38,5.90
2020,12,01,10,39,5.90
2020,12,01,10,40,5.90
2020,12,01,10,41,6.10
2020,12,01,10,42,6.20
2020,12,01,10,43,6.20
2020,12,01,10,44,6.20
2020,12,01,10,45,6.20
2020,12,01,10,46,6.20
2020,12,01,10,47,6.20
2020,12,01,10,48,6.20
2020,12,01,10,49,6.20
2020,12,01,10,50,6.30
2020,12,01,10,51,6.30
2020,12,01,10,52,6.40
2020,12,01,10,53,6.40
2020,12,01,10,54,6.50
2020,12,01,10,55,6.50
2020,12,01,10,56,6.60
2020,12,01,10,57,6.60
2020,12,01,10,58,6.60
2020,12,01,10,59,6.60
2020,12,01,11,00,6.60
2020,12,01,11,01,6.70
2020,12,01,11,02,6.70
2020,12,01,11,03,6.70
2020,12,01,11,04,6.70
2020,12,01,11,05,6.80
2020,12,01,11,06,6.90
2020,12,01,11,07,6.90
2020,12,01,11,08,6.90
2020,12,01,11,09,6.90
2020,12,01,11,10,6.90
2020,12,01,11,11,6.90
2020,12,01,11,12,6.90
2020,12,01,11,13,6.90
2020,12,01,11,14,7.00
2020,12,01,11,15,7.00
2020,12,01,11,16,7.10
2020,12,01,11,17,7.10
2020,12,01,11,18,7.10
2020,12,01,11,19,7.10
2020,12,01,11,20,7.10
2020,12,01,11,21,7.10
2020,12,01,11,22,7.10
2020,12,01,11,23,7.10
2020,12,01,11,24,7.10
2020,12,01,11,25,7.10
2020,12,01,11,26,7.20
2020,12,01,11,27,7.20
2020,12,01,11,28,7.20
2020,12,01,11,29,7.20
2020,12,01,11,30,7.30
2020,12,01,11,31,7.30
2020,12,01,11,32,7.30
2020,12,01,11,33,7.40
2020,12,01,11,34,7.40
2020,12,01,11,35,7.40
2020,12,01,11,36,7.50
2020,12,01,11,37,7.60
2020,12,01,11,38,7.60
2020,12,01,11,39,7.60
2020,12,01,11,40,7.60
2020,12,01,11,41,7.70
2020,12,01,11,42,7.70
2020,12,01,11,43,7.70
2020,12,01,11,44,7.60
2020,12,01,11,45,7.60
2020,12,01,11,46,7.60
2020,12,01,11,47,7.60
2020,12,01,11,48,7.60
2020,12,01,11,49,7.60
2020,12,01,11,50,7.60
2020,12,01,11,51,7.60
2020,12,01,11,52,7.50
2020,12,01,11,53,7.40
2020,12,01,11,54,7.40
2020,12,01,11,55,7.40
2020,12,01,11,56,7.40
2020,12,01,11,57,7.40
2020,12,01,11,58,7.40
2020,12,01,11,59,7.30
2020,12,01,12,00,7.20
2020,12,01,12,01,7.20
2020,12,01,12,02,7.20
2020,12,01,12,03,7.20
2020,12,01,12,04,7.20
2020,12,01,12,05,7.20
2020,12,01,12,06,7.20
2020,12,01,12,07,7.20
2020,12,01,12,08,7.20
2020,12,01,12,09,7.20
2020,12,01,12,10,7.20
2020,12,01,12,11,7.20
2020,12,01,12,12,7.20
2020,12,01,12,13,7.10
2020,12,01,12,14,7.10
2020,12,01,12,15,7.10
2020,12,01,12,16,7.00
2020,12,01,12,17,7.00
2020,12,01,12,18,7.00
2020,12,01,12,19,6.90
2020,12,01,12,20,6.90
2020,12,01,12,21,6.90
2020,12,01,12,22,6.90
2020,12,01,12,23,6.90
2020,12,01,12,24,6.90
2020,12,01,12,25,6.80
2020,12,01,12,26,6.80
2020,12,01,12,27,6.80
2020,12,01,12,28,6.80
2020,12,01,12,29,6.80
2020,12,01,12,30,6.80
2020,12,01,12,31,6.80
2020,12,01,12,32,6.80
2020,12,01,12,33,6.80
2020,12,01,12,34,6.80
2020,12,01,12,35,6.80
2020,12,01,12,36,6.80
2020,12,01,12,37,6.80
2020,12,01,12,38,6.80
2020,12,01,12,39,6.80
2020,12,01,12,40,6.80
2020,12,01,12,41,6.80
2020,12,01,12,42,6.90
2020,12,01,12,43,6.90
2020,12,01,12,44,6.90
2020,12,01,12,45,7.00
2020,12,01,12,46,7.10
2020,12,01,12,47,7.20
2020,12,01,12,48,7.20
2020,12,01,12,49,7.20
2020,12,01,12,50,7.20
2020,12,01,12,51,7.20
2020,12,01,12,52,7.20
2020,12,01,12,53,7.30
2020,12,01,12,54,7.20
2020,12,01,12,55,7.20
2020,12,01,12,56,7.20
2020,12,01,12,57,7.20
2020,12,01,12,58,7.20
2020,12,01,12,59,7.20
2020,12,01,13,00,7.20
2020,12,01,13,01,7.20
2020,12,01,13,02,7.20
2020,12,01,13,03,7.20
2020,12,01,13,04,7.20
2020,12,01,13,05,7.20
2020,12,01,13,06,7.30
2020,12,01,13,07,7.30
2020,12,01,13,08,7.30
2020,12,01,13,09,7.30
2020,12,01,13,10,7.30
2020,12,01,13,11,7.40
2020,12,01,13,12,7.40
2020,12,01,13,13,7.40
2020,12,01,13,14,7.50
2020,12,01,13,15,7.50
2020,12,01,13,16,7.60
2020,12,01,13,17,7.60
2020,12,01,13,18,7.60
2020,12,01,13,19,7.60
2020,12,01,13,20,7.60
2020,12,01,13,21,7.60
2020,12,01,13,22,7.60
2020,12,01,13,23,7.50
2020,12,01,13,24,7.50
2020,12,01,13,25,7.40
2020,12,01,13,26,7.40
2020,12,01,13,27,7.40
2020,12,01,13,28,7.40
2020,12,01,13,29,7.40
2020,12,01,13,30,7.40
2020,12,01,13,31,7.40
2020,12,01,13,32,7.40
2020,12,01,13,33,7.40
2020,12,01,13,34,7.40
2020,12,01,13,35,7.40
2020,12,01,13,36,7.40
2020,12,01,13,37,7.40
2020,12,01,13,38,7.40
2020,12,01,13,39,7.40
2020,12,01,13,40,7.40
2020,12,01,13,41,7.40
2020,12,01,13,42,7.40
2020,12,01,13,43,7.40
2020,12,01,13,44,7.40
2020,12,01,13,45,7.40
2020,12,01,13,46,7.40
2020,12,01,13,47,7.40
2020,12,01,13,48,7.40
2020,12,01,13,49,7.30
2020,12,01,13,50,7.30
2020,12,01,13,51,7.20
2020,12,01,13,52,7.20
2020,12,01,13,53,7.20
2020,12,01,13,54,7.20
2020,12,01,13,55,7.20
2020,12,01,13,56,7.20
2020,12,01,13,57,7.20
2020,12,01,13,58,7.20
2020,12,01,13,59,7.20
2020,12,01,14,00,7.10
2020,12,01,14,01,7.10
2020,12,01,14,02,7.00
2020,12,01,14,03,7.00
2020,12,01,14,04,7.00
2020,12,01,14,05,6.90
2020,12,01,14,06,6.90
2020,12,01,14,07,6.90
2020,12,01,14,08,7.00
2020,12,01,14,09,7.00
2020,12,01,14,10,7.00
2020,12,01,14,11,7.10
2020,12,01,14,12,7.10
2020,12,01,14,13,7.10
2020,12,01,14,14,7.10
2020,12,01,14,15,7.10
2020,12,01,14,16,7.00
2020,12,01,14,17,7.00
2020,12,01,14,18,7.00
2020,12,01,14,19,7.00
2020,12,01,14,20,7.00
2020,12,01,14,21,7.00
2020,12,01,14,22,7.00
2020,12,01,14,23,7.10
2020,12,01,14,24,7.10
2020,12,01,14,25,7.10
2020,12,01,14,26,7.10
2020,12,01,14,27,7.10
2020,12,01,14,28,7.10
2020,12,01,14,29,7.20
2020,12,01,14,30,7.20
2020,12,01,14,31,7.20
2020,12,01,14,32,7.20
2020,12,01,14,33,7.10
2020,12,01,14,34,7.10
2020,12,01,14,35,7.10
2020,12,01,14,36,7.20
2020,12,01,14,37,7.20
2020,12,01,14,38,7.20
2020,12,01,14,39,7.20
2020,12,01,14,40,7.20
2020,12,01,14,41,7.20
2020,12,01,14,42,7.20
2020,12,01,14,43,7.20
2020,12,01,14,44,7.20
2020,12,01,14,45,7.20
2020,12,01,14,46,7.20
2020,12,01,14,47,7.20
2020,12,01,14,48,7.20
2020,12,01,14,49,7.20
2020,12,01,14,50,7.20
2020,12,01,14,51,7.20
2020,12,01,14,52,7.20
2020,12,01,14,53,7.20
2020,12,01,14,54,7.20
2020,12,01,14,55,7.10
2020,12,01,14,56,7.10
2020,12,01,14,57,7.10
2020,12,01,14,58,7.10
2020,12,01,14,59,7.20
2020,12,01,15,00,7.20
2020,12,01,15,01,7.20
2020,12,01,15,02,7.20
2020,12,01,15,03,7.20
2020,12,01,15,04,7.10
2020,12,01,15,05,7.10
2020,12,01,15,06,7.10
2020,12,01,15,07,7.10
2020,12,01,15,08,7.10
2020,12,01,15,09,7.10
2020,12,01,15,10,7.10
2020,12,01,15,11,7.10
2020,12,01,15,12,7.10
2020,12,01,15,13,7.10
2020,12,01,15,14,7.00
2020,12,01,15,15,7.00
2020,12,01,15,16,7.00
2020,12,01,15,17,7.00
2020,12,01,15,18,7.00
2020,12,01,15,19,7.00
2020,12,01,15,20,7.00
2020,12,01,15,21,7.00
2020,12,01,15,22,7.00
2020,12,01,15,23,7.00
2020,12,01,15,24,7.00
2020,12,01,15,25,7.00
2020,12,01,15,26,7.00
2020,12,01,15,27,6.90
2020,12,01,15,28,6.90
2020,12,01,15,29,6.90
2020,12,01,15,30,6.90
2020,12,01,15,31,6.90
2020,12,01,15,32,6.90
2020,12,01,15,33,6.80
2020,12,01,15,34,6.80
2020,12,01,15,35,6.80
2020,12,01,15,36,6.80
2020,12,01,15,37,6.70
2020,12,01,15,38,6.70
2020,12,01,15,39,6.70
2020,12,01,15,40,6.70
2020,12,01,15,41,6.60
2020,12,01,15,42,6.60
2020,12,01,15,43,6.60
2020,12,01,15,44,6.60
2020,12,01,15,45,6.50
2020,12,01,15,46,6.40
2020,12,01,15,47,6.40
2020,12,01,15,48,6.40
2020,12,01,15,49,6.30
2020,12,01,15,50,6.20
2020,12,01,15,51,6.20
2020,12,01,15,52,6.10
2020,12,01,15,53,6.10
2020,12,01,15,54,6.00
2020,12,01,15,55,6.00
2020,12,01,15,56,6.00
2020,12,01,15,57,5.90
2020,12,01,15,58,5.90
2020,12,01,15,59,5.90
2020,12,01,16,00,5.90
2020,12,01,16,01,5.80
2020,12,01,16,02,5.80
2020,12,01,16,03,5.60
2020,12,01,16,04,5.50
2020,12,01,16,05,4.90
2020,12,01,16,06,5.00
2020,12,01,16,07,4.90
2020,12,01,16,08,4.90
2020,12,01,16,09,4.90
2020,12,01,16,10,4.90
2020,12,01,16,11,4.90
2020,12,01,16,12,4.90
2020,12,01,16,13,4.90
2020,12,01,16,14,4.90
2020,12,01,16,15,4.90
2020,12,01,16,16,4.90
2020,12,01,16,17,4.90
